OneWeb SL0136

operational
NORAD ID: 47273 Int'l Des: 2020-100 Owner: ONEWEB Country: UK Constellation: oneweb
LEOCIRCULARPOLARONEWEB_TYPE

关于 OneWeb SL0136

正在加载描述...

实时位置

正在加载3D地球...

即将过境

高度历史

Altitude vs Time

uPlot chart will show altitude changes over time

两行轨道根数

1 47273U 20100R 25305.51655807 -.00000419 00000-0 -11995-2 0 9991
2 47273 87.8974 35.9097 0001902 100.3681 259.7662 13.12443352234860
Epoch: Nov 1, 2025 • Age: 24 hours

当前状态

高度 1218.7 km
速度 7.24 km/s
星下点 -9.33°S, 171.31°E
发射日期 Dec 18, 2020
运行时间 4.8 years
类型 internet

技术详情

分类 Payload
质量 148.00 kg
干质量 140.00 kg
总质量 148.00 kg
长度 1.30 m
直径 1.00 m
跨度 5.00 m
形状 Trapezoid+2 pan
制造商 ONEWUS
平台类型 ARROW
阶段状态 In Orbit
所有者/国家 ONEWEB/UK

大型星座

Loading constellations...